Regional Weather Roundup
Issued by NWS

Home | Current Version | Previous Version | Text Only | Print | Product List | Glossary Off
Versions: 1 2 3 4 5 6 7 8 9 10 11 12 13 14 15 16 17 18 19 20 21 22 23 24 25 26 27 28 29 30 31 32 33 34 35 36 37 38 39 40 41 42 43 44 45 46 47 48 49 50

000
ASUS43 KMPX 021401
RWRMN
WEATHER ROUNDUP FOR MINNESOTA
NATIONAL WEATHER SERVICE TWIN CITIES/CHANHASSEN MN
900 AM CDT SUN AUG 02 2015


NOTE: "FAIR" INDICATES FEW OR NO CLOUDS BELOW 12,000 FEET WITH NO
SIGNIFICANT WEATHER AND/OR OBSTRUCTIONS TO VISIBILITY. N/A MEANS
CURRENT SKY AND/OR WEATHER CONDITIONS ARE NOT AVAILABLE.

MNZ060>063-068>070-021500-
   Twin Cities Metro

CITY           SKY/WX    TMP DP  RH WIND       PRES   REMARKS
TWIN CITIES    MOSUNNY   75  64  68 S10       29.63F
ST PAUL        MOSUNNY   76  64  66 SW9       29.64F
CRYSTAL        SUNNY     75  64  68 SW9       29.63S
BLAINE         MOSUNNY   75  66  73 S9        29.64S
LAKEVILLE      SUNNY     73  64  73 SW3       29.65F
EDEN PRAIRIE   SUNNY     75  65  70 S14       29.62F
SOUTH ST PAUL  SUNNY     76  64  64 S7        29.64F
LAKE ELMO      FAIR      73  64  73 SW12      29.66S
$$
MNZ001>005-007-008-013>017-022>024-027-028-021500-
   Northwest Minnesota

CITY           SKY/WX    TMP DP  RH WIND       PRES   REMARKS
BEMIDJI        PTSUNNY   65  62  91 NW8       29.71R
HALLOCK        SUNNY     64  59  82 N12       29.77R
ROSEAU         SUNNY     63  57  82 NW9       29.74R
WARROAD        SUNNY     64  61  88 NW10      29.73R
THIEF RVR FALL MOSUNNY   66  61  82 NW12      29.75R
CROOKSTON      SUNNY     66  61  82 N12       29.76R
FOSSTON        MOSUNNY   64  59  82 N9        29.75R
DETROIT LAKES  MOSUNNY   66  61  82 NW7       29.75R
MOORHEAD       MOSUNNY   66  61  82 N15       29.76R
PARK RAPIDS    PTSUNNY   70  60  70 NW9       29.70R
MAHNOMEN       FAIR      65  62  89 NW13      29.74R
$$
MNZ006-009>011-018-025>026-021500-
   North Central Minnesota

CITY           SKY/WX    TMP DP  RH WIND       PRES   REMARKS
BAUDETTE       CLOUDY    66  60  81 W3        29.69R
FLAG ISLAND    SUNNY     64  57  77 NW13      29.69R
INTL FALLS     MOSUNNY   67  56  67 N12       29.66R
WASKISH        MOSUNNY   66  63  88 NW5       29.69R
BIG FORK       PTSUNNY   64  61  88 N8        29.66F
LONGVILLE      CLOUDY    64  63  94 CALM      29.66S
GRAND RAPIDS   CLOUDY    66  61  82 W7        29.66R
CRANE LAKE     PTSUNNY   61  61 100 NW3       29.66R
ORR            MOSUNNY   64  57  77 CALM      29.62F
COOK           PTSUNNY   63  61  94 CALM      29.64S
WALKER         CLOUDY    64  60  86 NW6       29.68R
$$
MNZ012-019>021-037-021500-
   Northeast Minnesota

CITY           SKY/WX    TMP DP  RH WIND       PRES   REMARKS
DULUTH         PTSUNNY   69  56  62 W10       29.65F
ELY            CLOUDY    63  61  94 NW5       29.63F
HIBBING        CLOUDY    64  59  83 NW5       29.64R
EVELETH        CLOUDY    63  59  88 W8        29.65R
DULUTH HARBOR  PTSUNNY   72  61  68 SW3       29.61F
TWO HARBORS    CLOUDY    70  59  68 S3        29.57F
SILVER BAY     LGT RAIN  63  57  82 NW7       29.56F
GRAND MARAIS     N/A     60  55  83 MISG      29.59F
G MARAIS ARPRT CLOUDY    61  55  82 NW5       29.62F
$$
MNZ029>031-032-039>041-046>048-054>057-064-021500-
   West Central Minnesota

CITY           SKY/WX    TMP DP  RH WIND       PRES   REMARKS
FERGUS FALLS   MOSUNNY   70  61  73 N10       29.71R
WHEATON        PTSUNNY   70  64  83 NW15G28   29.73R
MORRIS         PTSUNNY   70  64  83 NW17G28   29.68R
ALEXANDRIA     MOSUNNY   70  65  84 N12       29.69R
ELBOW LAKE     FAIR      71  65  82 N16       29.70R
WADENA         CLOUDY    64  63  94 CALM      29.70R
GLENWOOD       SUNNY     72  63  73 NW15G21   29.68R
APPLETON       SUNNY     73  61  64 NW15G24   29.67R
BENSON         SUNNY     73  61  64 N14G20    29.68R
ORTONVILLE     SUNNY     73  63  68 NW18G25   29.70R
MADISON        SUNNY     75  59  57 NW15      29.69R
WILLMAR        FAIR      73  64  73 W15       29.67R
$$
MNZ033>034-036-042>043-049>051-058-059-021500-
   Central Minnesota

CITY           SKY/WX    TMP DP  RH WIND       PRES   REMARKS
ST CLOUD       SUNNY     72  66  81 VRB3      29.65R
SAUK CENTRE    FAIR      70  65  84 NW5       29.68R
PAYNESVILLE    SUNNY     71  62  74 W8        29.66R
AITKIN         LGT RAIN  66  61  82 E6        29.61F
PINE RIVER     CLOUDY    64  63  94 N3        29.69F
BRAINERD       PTSUNNY   67  61  81 CALM      29.63F
STAPLES        PTSUNNY   66  63  88 SE3       29.66F
LONG PRAIRIE   PTSUNNY   68  64  88 NW7       29.70R THUNDER
LITTLE FALLS   PTSUNNY   68  63  83 CALM      29.66R
LITCHFIELD     SUNNY     73  66  78 W8        29.65R
BUFFALO        SUNNY     71  63  75 SW5       29.66R
MAPLE LAKE     SUNNY     72  66  83 SW3       29.67R
$$
MNZ037-044-045-052-053-021500-
   East Central Minnesota

CITY           SKY/WX    TMP DP  RH WIND       PRES   REMARKS
PRINCETON      SUNNY     75  66  73 S5        29.63F
MORA           SUNNY     70  64  83 CALM      29.67R
CAMBRIDGE      MOSUNNY   75  63  64 CALM      29.62S
RUSH CITY      MOSUNNY   71  65  82 CALM      29.64S
MOOSE LAKE     PTSUNNY   70  61  73 CALM      29.65R
HINCKLEY       FAIR      70  66  88 N3        29.64F
CLOQUET        PTSUNNY   70  54  56 NW6       29.67R
MCGREGOR       PTSUNNY   66  61  82 S6        29.65S
$$
MNZ071>073-080-081-089-090-097-098-021500-
   Southwest Minnesota

CITY           SKY/WX    TMP DP  RH WIND       PRES   REMARKS
MONTEVIDEO     SUNNY     79  63  57 NW12G22   29.69R
GRANITE FALLS  SUNNY     75  63  65 W13G20    29.69R
CANBY          SUNNY     76  61  59 NW15      29.72R
MARSHALL       SUNNY     79  57  47 W17       29.71R
REDWOOD FALLS  SUNNY     77  62  59 W14       29.67R
OLIVIA         SUNNY     72  61  68 W16G22    29.66R
PIPESTONE      MOSUNNY   70  64  83 SW7       29.76S
WINDOM         SUNNY     75  64  69 SW13G18   29.73F
WORTHINGTON    SUNNY     73  63  68 SW16      29.77R
JACKSON        SUNNY     75  68  78 SW17      29.76S
TRACY          SUNNY     77  63  61 W12G18    29.70S
SLAYTON        SUNNY     73  63  72 W10       29.75F
$$
MNZ065>067-074>077-082>085-091>093-021500-
   South Central Minnesota

CITY           SKY/WX    TMP DP  RH WIND       PRES   REMARKS
MANKATO        SUNNY     73  64  73 SW16      29.68F
NEW ULM        SUNNY     73  64  73 SW12G18   29.68S
ST JAMES       SUNNY     79  66  65 SW17G23   29.71S
FAIRMONT       SUNNY     75  64  69 SW16      29.73F
GLENCOE        SUNNY     74  66  77 SW9       29.65R
FARIBAULT      SUNNY     75  68  78 SW9G16    29.68F
OWATONNA       SUNNY     75  68  78 SW17G24   29.69F
WASECA         SUNNY     73  68  83 SW12G20   29.72S
ALBERT LEA     SUNNY     75  68  78 SW12G17   29.73F
$$
MNZ078>079-086>088-094>096-021500-
   Southeast Minnesota

CITY           SKY/WX    TMP DP  RH WIND       PRES   REMARKS
ROCHESTER      SUNNY     75  70  84 SW13      29.73F
RED WING       MOSUNNY   77  64  65 W7        29.65F
STANTON        SUNNY     76  67  72 SW13      29.66F
DODGE CENTER   SUNNY     75  68  78 SW16G22   29.71F
WINONA         SUNNY     79  68  69 W7        29.70F
AUSTIN         SUNNY     75  70  83 SW9G17    29.74F
PRESTON        SUNNY     74  66  76 SW13G20   29.76S
$$
ABBREVIATIONS USED IN REMARKS
   TC - TEMPERATURES IN CELSIUS
  WCI - WIND CHILL INDEX
   HX - HEAT INDEX
  VSB - VISIBILITY
$$


USA.gov is the U.S. government's official web portal to all federal, state and local government web resources and services.